Wetterdaten: Donnerstag, 20.03.2014
Datum Zeit Temperatur Luftfeuchte Luftdruck Regen Wind Richtung Richtung Taupunkt Windchill Windben
20.03.2014 00:00 0,2 C 82 % 1026,4 hPa 0,0 l/m 0,0 km/h (0 Bft) SW 225 -2,5 C 16,1 C 0,0 km/h (0 Bft)
20.03.2014 00:05 0,6 C 83 % 1026,1 hPa 0,0 l/m 0,0 km/h (0 Bft) SW 225 -1,9 C 16,1 C 0,0 km/h (0 Bft)
20.03.2014 00:10 0,3 C 83 % 1026,1 hPa 0,0 l/m 0,0 km/h (0 Bft) SW 225 -2,2 C 16,1 C 0,0 km/h (0 Bft)
20.03.2014 00:15 0,2 C 83 % 1026,1 hPa 0,0 l/m 0,0 km/h (0 Bft) SW 225 -2,3 C 16,1 C 0,0 km/h (0 Bft)
20.03.2014 00:20 0,1 C 83 % 1026,1 hPa 0,0 l/m 0,0 km/h (0 Bft) SW 225 -2,4 C 16,1 C 0,0 km/h (0 Bft)
20.03.2014 00:25 0,2 C 84 % 1025,9 hPa 0,0 l/m 0,0 km/h (0 Bft) SW 225 -2,2 C 16,1 C 0,0 km/h (0 Bft)
20.03.2014 00:30 0,3 C 84 % 1025,9 hPa 0,0 l/m 0,0 km/h (0 Bft) SW 225 -2,1 C 16,1 C 0,0 km/h (0 Bft)
20.03.2014 00:35 0,4 C 84 % 1025,9 hPa 0,0 l/m 0,0 km/h (0 Bft) SW 225 -2,0 C 16,1 C 0,0 km/h (0 Bft)
20.03.2014 00:40 0,3 C 84 % 1025,9 hPa 0,0 l/m 0,0 km/h (0 Bft) SW 225 -2,1 C 16,1 C 0,0 km/h (0 Bft)
20.03.2014 00:45 -0,1 C 83 % 1025,5 hPa 0,0 l/m 0,0 km/h (0 Bft) SW 225 -2,6 C 16,1 C 0,0 km/h (0 Bft)
20.03.2014 00:50 -0,3 C 83 % 1025,5 hPa 0,0 l/m 0,0 km/h (0 Bft) SW 225 -2,8 C 16,1 C 0,0 km/h (0 Bft)
20.03.2014 00:55 -0,3 C 83 % 1025,5 hPa 0,0 l/m 0,0 km/h (0 Bft) SW 225 -2,8 C 16,1 C 0,0 km/h (0 Bft)
20.03.2014 01:00 -0,7 C 83 % 1025,5 hPa 0,0 l/m 0,0 km/h (0 Bft) SW 225 -3,2 C 16,1 C 0,0 km/h (0 Bft)
20.03.2014 01:05 -0,4 C 84 % 1025,2 hPa 0,0 l/m 0,0 km/h (0 Bft) SW 225 -2,8 C 16,1 C 0,0 km/h (0 Bft)
20.03.2014 01:10 -0,4 C 84 % 1025,2 hPa 0,0 l/m 0,0 km/h (0 Bft) SW 225 -2,8 C 16,1 C 0,0 km/h (0 Bft)
20.03.2014 01:15 -0,5 C 84 % 1025,2 hPa 0,0 l/m 0,0 km/h (0 Bft) SW 225 -2,9 C 16,1 C 0,0 km/h (0 Bft)
20.03.2014 01:20 -0,6 C 84 % 1025,2 hPa 0,0 l/m 0,0 km/h (0 Bft) SW 225 -3,0 C 16,1 C 0,0 km/h (0 Bft)
20.03.2014 01:25 -0,1 C 86 % 1025,1 hPa 0,0 l/m 0,0 km/h (0 Bft) SW 225 -2,2 C 16,1 C 0,0 km/h (0 Bft)
20.03.2014 01:30 -0,1 C 87 % 1025,1 hPa 0,0 l/m 0,0 km/h (0 Bft) SW 225 -2,0 C 16,1 C 0,0 km/h (0 Bft)
20.03.2014 01:35 -0,3 C 86 % 1025,1 hPa 0,0 l/m 0,0 km/h (0 Bft) SW 225 -2,3 C 16,1 C 0,0 km/h (0 Bft)
20.03.2014 01:40 -0,6 C 86 % 1025,1 hPa 0,0 l/m 0,0 km/h (0 Bft) SW 225 -2,6 C 16,1 C 0,0 km/h (0 Bft)
20.03.2014 01:45 -0,8 C 86 % 1024,9 hPa 0,0 l/m 0,0 km/h (0 Bft) SW 225 -2,8 C 16,1 C 0,0 km/h (0 Bft)
20.03.2014 01:50 -1,0 C 86 % 1024,9 hPa 0,0 l/m 0,0 km/h (0 Bft) SW 225 -3,0 C 16,1 C 0,0 km/h (0 Bft)
20.03.2014 01:55 -0,9 C 86 % 1024,9 hPa 0,0 l/m 0,0 km/h (0 Bft) SW 225 -2,9 C 16,1 C 0,0 km/h (0 Bft)
20.03.2014 02:00 -0,9 C 86 % 1024,9 hPa 0,0 l/m 0,0 km/h (0 Bft) SW 225 -2,9 C 16,1 C 0,0 km/h (0 Bft)
20.03.2014 02:05 -0,9 C 86 % 1024,7 hPa 0,0 l/m 0,0 km/h (0 Bft) SW 225 -2,9 C 16,1 C 0,0 km/h (0 Bft)
20.03.2014 02:10 -1,3 C 86 % 1024,7 hPa 0,0 l/m 0,0 km/h (0 Bft) SW 225 -3,3 C 16,1 C 0,0 km/h (0 Bft)
20.03.2014 02:15 -1,2 C 86 % 1024,7 hPa 0,0 l/m 0,0 km/h (0 Bft) SW 225 -3,2 C 16,1 C 0,0 km/h (0 Bft)
20.03.2014 02:20 -1,3 C 86 % 1024,7 hPa 0,0 l/m 0,0 km/h (0 Bft) SW 225 -3,3 C 16,1 C 0,0 km/h (0 Bft)
20.03.2014 02:25 -1,0 C 87 % 1024,4 hPa 0,0 l/m 0,0 km/h (0 Bft) SW 225 -2,9 C 16,1 C 0,0 km/h (0 Bft)
20.03.2014 02:30 -0,8 C 87 % 1024,4 hPa 0,0 l/m 0,0 km/h (0 Bft) SW 225 -2,7 C 16,1 C 0,0 km/h (0 Bft)
20.03.2014 02:35 -0,8 C 88 % 1024,4 hPa 0,0 l/m 0,0 km/h (0 Bft) SW 225 -2,5 C 16,1 C 0,0 km/h (0 Bft)
20.03.2014 02:40 -1,1 C 88 % 1024,4 hPa 0,0 l/m 0,0 km/h (0 Bft) SW 225 -2,8 C 16,1 C 0,0 km/h (0 Bft)
20.03.2014 02:45 -1,4 C 87 % 1024,1 hPa 0,0 l/m 0,0 km/h (0 Bft) SW 225 -3,3 C 16,1 C 0,0 km/h (0 Bft)
20.03.2014 02:50 -1,4 C 87 % 1024,1 hPa 0,0 l/m 0,0 km/h (0 Bft) SW 225 -3,3 C 16,1 C 0,0 km/h (0 Bft)
20.03.2014 02:55 -1,3 C 87 % 1024,1 hPa 0,0 l/m 0,0 km/h (0 Bft) SW 225 -3,2 C 16,1 C 0,0 km/h (0 Bft)
20.03.2014 03:00 -1,2 C 87 % 1024,1 hPa 0,0 l/m 0,0 km/h (0 Bft) SW 225 -3,1 C 16,1 C 0,0 km/h (0 Bft)
20.03.2014 03:05 -1,3 C 87 % 1023,9 hPa 0,0 l/m 0,0 km/h (0 Bft) SW 225 -3,2 C 16,1 C 0,0 km/h (0 Bft)
20.03.2014 03:10 -1,2 C 88 % 1023,9 hPa 0,0 l/m 0,0 km/h (0 Bft) SW 225 -2,9 C 16,1 C 0,0 km/h (0 Bft)
20.03.2014 03:15 -1,6 C 87 % 1023,9 hPa 0,0 l/m 0,0 km/h (0 Bft) SW 225 -3,5 C 16,1 C 0,0 km/h (0 Bft)
20.03.2014 03:20 -1,6 C 87 % 1023,9 hPa 0,0 l/m 0,0 km/h (0 Bft) SW 225 -3,5 C 16,1 C 0,0 km/h (0 Bft)
20.03.2014 03:25 -1,4 C 88 % 1023,6 hPa 0,0 l/m 0,0 km/h (0 Bft) SW 225 -3,1 C 16,1 C 0,0 km/h (0 Bft)
20.03.2014 03:30 -1,5 C 87 % 1023,6 hPa 0,0 l/m 0,0 km/h (0 Bft) SW 225 -3,4 C 16,1 C 0,0 km/h (0 Bft)
20.03.2014 03:35 -1,6 C 88 % 1023,6 hPa 0,0 l/m 0,0 km/h (0 Bft) SW 225 -3,3 C 16,1 C 0,0 km/h (0 Bft)
20.03.2014 03:40 -1,6 C 88 % 1023,6 hPa 0,0 l/m 0,0 km/h (0 Bft) SW 225 -3,3 C 16,1 C 0,0 km/h (0 Bft)
20.03.2014 03:45 -1,9 C 88 % 1023,4 hPa 0,0 l/m 0,0 km/h (0 Bft) SW 225 -3,6 C 16,1 C 0,0 km/h (0 Bft)
20.03.2014 03:50 -1,7 C 88 % 1023,4 hPa 0,0 l/m 0,0 km/h (0 Bft) SW 225 -3,4 C 16,1 C 0,0 km/h (0 Bft)
20.03.2014 03:55 -1,6 C 88 % 1023,4 hPa 0,0 l/m 0,0 km/h (0 Bft) SW 225 -3,3 C 16,1 C 0,0 km/h (0 Bft)
20.03.2014 04:00 -1,8 C 88 % 1023,4 hPa 0,0 l/m 0,0 km/h (0 Bft) SW 225 -3,5 C 16,1 C 0,0 km/h (0 Bft)
20.03.2014 04:05 -1,6 C 88 % 1023,3 hPa 0,0 l/m 0,0 km/h (0 Bft) SW 225 -3,3 C 16,1 C 0,0 km/h (0 Bft)
20.03.2014 04:10 -1,7 C 88 % 1023,3 hPa 0,0 l/m 0,0 km/h (0 Bft) SW 225 -3,4 C 16,1 C 0,0 km/h (0 Bft)
20.03.2014 04:15 -2,0 C 88 % 1023,3 hPa 0,0 l/m 0,0 km/h (0 Bft) SW 225 -3,7 C 16,1 C 0,0 km/h (0 Bft)
20.03.2014 04:20 -1,8 C 88 % 1023,3 hPa 0,0 l/m 0,0 km/h (0 Bft) SW 225 -3,5 C 16,1 C 0,0 km/h (0 Bft)
20.03.2014 04:25 -1,6 C 88 % 1023,1 hPa 0,0 l/m 0,0 km/h (0 Bft) SW 225 -3,3 C 16,1 C 0,0 km/h (0 Bft)
20.03.2014 04:30 -1,8 C 88 % 1023,1 hPa 0,0 l/m 0,0 km/h (0 Bft) SW 225 -3,5 C 16,1 C 0,0 km/h (0 Bft)
20.03.2014 04:35 -1,9 C 88 % 1023,1 hPa 0,0 l/m 0,0 km/h (0 Bft) SW 225 -3,6 C 16,1 C 0,0 km/h (0 Bft)
20.03.2014 04:40 -1,9 C 88 % 1023,1 hPa 0,0 l/m 0,0 km/h (0 Bft) SW 225 -3,6 C 16,1 C 0,0 km/h (0 Bft)
20.03.2014 04:45 -2,0 C 88 % 1022,9 hPa 0,0 l/m 0,0 km/h (0 Bft) SW 225 -3,7 C 16,1 C 0,0 km/h (0 Bft)
20.03.2014 04:50 -2,3 C 88 % 1022,9 hPa 0,0 l/m 0,0 km/h (0 Bft) SW 225 -4,0 C 16,1 C 0,0 km/h (0 Bft)
20.03.2014 04:55 -2,3 C 88 % 1022,9 hPa 0,0 l/m 0,0 km/h (0 Bft) SW 225 -4,0 C 16,1 C 0,0 km/h (0 Bft)
20.03.2014 05:00 -2,4 C 88 % 1022,9 hPa 0,0 l/m 0,0 km/h (0 Bft) SW 225 -4,1 C 16,1 C 0,0 km/h (0 Bft)
20.03.2014 05:03 -2,5 C 88 % 1022,8 hPa 0,0 l/m 0,0 km/h (0 Bft) SW 225 -4,2 C 16,1 C 0,0 km/h (0 Bft)
20.03.2014 05:05 -2,5 C 88 % 1022,8 hPa 0,0 l/m 0,0 km/h (0 Bft) SW 225 -4,2 C 16,1 C 0,0 km/h (0 Bft)
20.03.2014 05:10 -2,4 C 88 % 1022,8 hPa 0,0 l/m 0,0 km/h (0 Bft) SW 225 -4,1 C 16,1 C 0,0 km/h (0 Bft)
20.03.2014 05:15 -2,1 C 89 % 1022,8 hPa 0,0 l/m 0,0 km/h (0 Bft) SW 225 -3,7 C 16,1 C 0,0 km/h (0 Bft)
20.03.2014 05:20 -2,1 C 89 % 1022,8 hPa 0,0 l/m 0,0 km/h (0 Bft) SW 225 -3,7 C 16,1 C 0,0 km/h (0 Bft)
20.03.2014 05:25 -2,5 C 89 % 1022,9 hPa 0,0 l/m 0,0 km/h (0 Bft) SW 225 -4,1 C 16,1 C 0,0 km/h (0 Bft)
20.03.2014 05:30 -2,3 C 89 % 1022,9 hPa 0,0 l/m 0,0 km/h (0 Bft) SW 225 -3,9 C 16,1 C 0,0 km/h (0 Bft)
20.03.2014 05:35 -2,4 C 89 % 1022,9 hPa 0,0 l/m 0,0 km/h (0 Bft) SW 225 -4,0 C 16,1 C 0,0 km/h (0 Bft)
20.03.2014 05:40 -2,6 C 89 % 1022,9 hPa 0,0 l/m 0,0 km/h (0 Bft) SW 225 -4,2 C 16,1 C 0,0 km/h (0 Bft)
20.03.2014 05:45 -2,7 C 89 % 1022,5 hPa 0,0 l/m 0,0 km/h (0 Bft) SW 225 -4,3 C 16,1 C 0,0 km/h (0 Bft)
20.03.2014 05:50 -2,6 C 89 % 1022,5 hPa 0,0 l/m 0,0 km/h (0 Bft) SW 225 -4,2 C 16,1 C 0,0 km/h (0 Bft)
20.03.2014 05:55 -2,2 C 90 % 1022,5 hPa 0,0 l/m 0,0 km/h (0 Bft) SW 225 -3,6 C 16,1 C 0,0 km/h (0 Bft)
20.03.2014 06:00 -2,2 C 90 % 1022,5 hPa 0,0 l/m 0,0 km/h (0 Bft) SW 225 -3,6 C 16,1 C 0,0 km/h (0 Bft)
20.03.2014 06:05 -2,3 C 90 % 1022,4 hPa 0,0 l/m 0,0 km/h (0 Bft) SW 225 -3,7 C 16,1 C 0,0 km/h (0 Bft)
20.03.2014 06:10 -2,5 C 90 % 1022,4 hPa 0,0 l/m 0,0 km/h (0 Bft) SW 225 -3,9 C 16,1 C 0,0 km/h (0 Bft)
20.03.2014 06:15 -2,4 C 90 % 1022,4 hPa 0,0 l/m 0,0 km/h (0 Bft) SW 225 -3,8 C 16,1 C 0,0 km/h (0 Bft)
20.03.2014 06:20 -2,5 C 90 % 1022,4 hPa 0,0 l/m 0,0 km/h (0 Bft) SW 225 -3,9 C 16,1 C 0,0 km/h (0 Bft)
20.03.2014 06:25 -2,7 C 89 % 1022,3 hPa 0,0 l/m 0,0 km/h (0 Bft) SW 225 -4,3 C 16,1 C 0,0 km/h (0 Bft)
20.03.2014 06:30 -2,6 C 89 % 1022,3 hPa 0,0 l/m 0,0 km/h (0 Bft) SW 225 -4,2 C 16,1 C 0,0 km/h (0 Bft)
20.03.2014 06:35 -2,5 C 89 % 1022,3 hPa 0,0 l/m 0,0 km/h (0 Bft) SW 225 -4,1 C 16,1 C 0,0 km/h (0 Bft)
20.03.2014 06:40 -2,4 C 90 % 1022,3 hPa 0,0 l/m 0,0 km/h (0 Bft) SW 225 -3,8 C 16,1 C 0,0 km/h (0 Bft)
20.03.2014 06:45 -2,4 C 90 % 1022,5 hPa 0,0 l/m 0,0 km/h (0 Bft) SW 225 -3,8 C 16,1 C 0,0 km/h (0 Bft)
20.03.2014 06:50 -2,3 C 90 % 1022,5 hPa 0,0 l/m 0,0 km/h (0 Bft) SW 225 -3,7 C 16,1 C 0,0 km/h (0 Bft)
20.03.2014 06:55 -2,5 C 90 % 1022,5 hPa 0,0 l/m 0,0 km/h (0 Bft) SW 225 -3,9 C 16,1 C 0,0 km/h (0 Bft)
20.03.2014 07:00 -2,2 C 90 % 1022,5 hPa 0,0 l/m 0,0 km/h (0 Bft) SW 225 -3,6 C 16,1 C 0,0 km/h (0 Bft)
20.03.2014 07:05 -2,4 C 89 % 1022,4 hPa 0,0 l/m 0,0 km/h (0 Bft) SW 225 -4,0 C 16,1 C 0,0 km/h (0 Bft)
20.03.2014 07:10 -2,3 C 90 % 1022,4 hPa 0,0 l/m 0,0 km/h (0 Bft) SW 225 -3,7 C 16,1 C 0,0 km/h (0 Bft)
20.03.2014 07:15 -2,0 C 90 % 1022,4 hPa 0,0 l/m 0,0 km/h (0 Bft) SW 225 -3,4 C 16,1 C 0,0 km/h (0 Bft)
20.03.2014 07:20 -1,7 C 90 % 1022,4 hPa 0,0 l/m 0,0 km/h (0 Bft) SW 225 -3,1 C 16,1 C 0,0 km/h (0 Bft)
20.03.2014 07:25 -1,8 C 90 % 1022,3 hPa 0,0 l/m 0,0 km/h (0 Bft) SW 225 -3,2 C 16,1 C 0,0 km/h (0 Bft)
20.03.2014 07:30 -1,6 C 90 % 1022,3 hPa 0,0 l/m 0,0 km/h (0 Bft) SW 225 -3,0 C 16,1 C 0,0 km/h (0 Bft)
20.03.2014 07:35 -1,6 C 90 % 1022,3 hPa 0,0 l/m 0,0 km/h (0 Bft) SW 225 -3,0 C 16,1 C 0,0 km/h (0 Bft)
20.03.2014 07:40 -1,2 C 90 % 1022,3 hPa 0,0 l/m 0,0 km/h (0 Bft) SW 225 -2,6 C 16,1 C 0,0 km/h (0 Bft)
20.03.2014 07:45 -1,1 C 90 % 1022,2 hPa 0,0 l/m 0,0 km/h (0 Bft) SW 225 -2,5 C 16,1 C 0,0 km/h (0 Bft)
20.03.2014 07:50 0,0 C 91 % 1022,2 hPa 0,0 l/m 0,0 km/h (0 Bft) SW 225 -1,3 C 16,1 C 0,0 km/h (0 Bft)
20.03.2014 07:55 0,9 C 90 % 1022,2 hPa 0,0 l/m 0,0 km/h (0 Bft) SW 225 -0,6 C 16,1 C 0,0 km/h (0 Bft)
20.03.2014 08:00 0,5 C 90 % 1022,2 hPa 0,0 l/m 0,0 km/h (0 Bft) SW 225 -0,9 C 16,1 C 0,0 km/h (0 Bft)
20.03.2014 08:05 1,9 C 91 % 1022,4 hPa 0,0 l/m 0,0 km/h (0 Bft) SW 225 0,6 C 16,1 C 0,0 km/h (0 Bft)
20.03.2014 08:10 5,5 C 88 % 1022,4 hPa 0,0 l/m 0,0 km/h (0 Bft) SW 225 3,7 C 16,1 C 0,0 km/h (0 Bft)
20.03.2014 08:15 6,9 C 79 % 1022,4 hPa 0,0 l/m 0,0 km/h (0 Bft) SW 225 3,5 C 16,1 C 0,0 km/h (0 Bft)
20.03.2014 08:20 5,6 C 73 % 1022,4 hPa 0,0 l/m 0,0 km/h (0 Bft) SW 225 1,2 C 16,1 C 0,0 km/h (0 Bft)
20.03.2014 08:25 8,4 C 71 % 1022,5 hPa 0,0 l/m 0,0 km/h (0 Bft) SW 225 3,5 C 16,1 C 0,0 km/h (0 Bft)
20.03.2014 08:30 9,8 C 69 % 1022,5 hPa 0,0 l/m 0,0 km/h (0 Bft) SW 225 4,4 C 16,1 C 0,0 km/h (0 Bft)
20.03.2014 08:35 10,9 C 66 % 1022,5 hPa 0,0 l/m 0,0 km/h (0 Bft) SW 225 4,8 C 16,1 C 0,0 km/h (0 Bft)
20.03.2014 08:40 12,2 C 64 % 1022,5 hPa 0,0 l/m 0,0 km/h (0 Bft) SW 225 5,6 C 16,1 C 0,0 km/h (0 Bft)
20.03.2014 08:45 11,7 C 57 % 1022,6 hPa 0,0 l/m 0,0 km/h (0 Bft) SW 225 3,5 C 16,1 C 0,0 km/h (0 Bft)
20.03.2014 08:50 11,5 C 56 % 1022,6 hPa 0,0 l/m 0,0 km/h (0 Bft) SW 225 3,0 C 16,1 C 0,0 km/h (0 Bft)
20.03.2014 08:55 13,1 C 57 % 1022,6 hPa 0,0 l/m 0,0 km/h (0 Bft) SW 225 4,8 C 16,1 C 0,0 km/h (0 Bft)
20.03.2014 09:00 13,5 C 54 % 1022,6 hPa 0,0 l/m 0,0 km/h (0 Bft) SW 225 4,4 C 16,1 C 0,0 km/h (0 Bft)
20.03.2014 09:05 13,1 C 50 % 1022,8 hPa 0,0 l/m 0,0 km/h (0 Bft) SW 225 2,9 C 16,1 C 0,0 km/h (0 Bft)
20.03.2014 09:10 13,4 C 50 % 1022,8 hPa 0,0 l/m 0,0 km/h (0 Bft) SW 225 3,2 C 16,1 C 0,0 km/h (0 Bft)
20.03.2014 09:15 13,6 C 47 % 1022,8 hPa 0,0 l/m 0,0 km/h (0 Bft) SW 225 2,5 C 16,1 C 0,0 km/h (0 Bft)
20.03.2014 09:20 14,1 C 47 % 1022,8 hPa 0,0 l/m 0,0 km/h (0 Bft) SW 225 3,0 C 16,1 C 0,0 km/h (0 Bft)
20.03.2014 09:25 15,6 C 47 % 1023,0 hPa 0,0 l/m 0,0 km/h (0 Bft) SW 225 4,3 C 16,1 C 0,0 km/h (0 Bft)
20.03.2014 09:30 15,1 C 45 % 1023,0 hPa 0,0 l/m 0,0 km/h (0 Bft) SW 225 3,3 C 16,1 C 0,0 km/h (0 Bft)
20.03.2014 09:35 15,0 C 40 % 1023,0 hPa 0,0 l/m 0,0 km/h (0 Bft) SW 225 1,5 C 16,1 C 0,0 km/h (0 Bft)
20.03.2014 09:40 14,7 C 40 % 1023,0 hPa 0,0 l/m 0,0 km/h (0 Bft) SW 225 1,2 C 16,1 C 0,0 km/h (0 Bft)
20.03.2014 09:45 15,6 C 40 % 1023,2 hPa 0,0 l/m 0,0 km/h (0 Bft) SW 225 2,1 C 16,1 C 0,0 km/h (0 Bft)
20.03.2014 09:50 15,1 C 38 % 1023,2 hPa 0,0 l/m 0,0 km/h (0 Bft) SW 225 0,9 C 16,1 C 0,0 km/h (0 Bft)
20.03.2014 09:55 15,3 C 37 % 1023,2 hPa 0,0 l/m 0,0 km/h (0 Bft) SW 225 0,7 C 16,1 C 0,0 km/h (0 Bft)
20.03.2014 10:00 15,1 C 37 % 1023,2 hPa 0,0 l/m 0,0 km/h (0 Bft) SW 225 0,5 C 16,1 C 0,0 km/h (0 Bft)
20.03.2014 10:03 15,9 C 37 % 1023,3 hPa 0,0 l/m 0,0 km/h (0 Bft) SW 225 1,2 C 16,1 C 0,0 km/h (0 Bft)
20.03.2014 10:05 15,9 C 37 % 1023,3 hPa 0,0 l/m 0,0 km/h (0 Bft) SW 225 1,2 C 16,1 C 0,0 km/h (0 Bft)
20.03.2014 10:10 16,4 C 37 % 1023,3 hPa 0,0 l/m 0,0 km/h (0 Bft) SW 225 1,7 C 16,1 C 0,0 km/h (0 Bft)
20.03.2014 10:15 15,6 C 35 % 1023,3 hPa 0,0 l/m 0,0 km/h (0 Bft) SW 225 0,2 C 16,1 C 0,0 km/h (0 Bft)
20.03.2014 10:20 15,8 C 36 % 1023,3 hPa 0,0 l/m 0,0 km/h (0 Bft) SW 225 0,8 C 16,1 C 0,0 km/h (0 Bft)
20.03.2014 10:25 15,7 C 34 % 1023,3 hPa 0,0 l/m 0,0 km/h (0 Bft) SW 225 -0,1 C 16,1 C 0,0 km/h (0 Bft)
20.03.2014 10:30 16,4 C 36 % 1023,3 hPa 0,0 l/m 0,0 km/h (0 Bft) SW 225 1,3 C 16,1 C 0,0 km/h (0 Bft)
20.03.2014 10:35 16,7 C 35 % 1023,3 hPa 0,0 l/m 0,0 km/h (0 Bft) SW 225 1,2 C 16,1 C 0,0 km/h (0 Bft)
20.03.2014 10:40 16,8 C 35 % 1023,3 hPa 0,0 l/m 0,0 km/h (0 Bft) SW 225 1,3 C 16,1 C 0,0 km/h (0 Bft)
20.03.2014 10:45 17,0 C 34 % 1023,4 hPa 0,0 l/m 0,0 km/h (0 Bft) SW 225 1,0 C 16,1 C 0,0 km/h (0 Bft)
20.03.2014 10:50 16,8 C 34 % 1023,4 hPa 0,0 l/m 0,0 km/h (0 Bft) SW 225 0,9 C 16,1 C 0,0 km/h (0 Bft)
20.03.2014 10:55 17,7 C 34 % 1023,4 hPa 0,0 l/m 0,0 km/h (0 Bft) SW 225 1,6 C 16,1 C 0,0 km/h (0 Bft)
20.03.2014 11:00 18,2 C 33 % 1023,4 hPa 0,0 l/m 0,0 km/h (0 Bft) SW 225 1,7 C 16,1 C 0,0 km/h (0 Bft)
20.03.2014 11:05 18,3 C 33 % 1023,6 hPa 0,0 l/m 0,0 km/h (0 Bft) SW 225 1,8 C 16,1 C 0,0 km/h (0 Bft)
20.03.2014 11:10 18,4 C 32 % 1023,6 hPa 0,0 l/m 0,0 km/h (0 Bft) SW 225 1,4 C 16,1 C 0,0 km/h (0 Bft)
20.03.2014 11:15 18,9 C 33 % 1023,6 hPa 0,0 l/m 0,0 km/h (0 Bft) SW 225 2,3 C 16,1 C 0,0 km/h (0 Bft)
20.03.2014 11:20 18,1 C 32 % 1023,6 hPa 0,0 l/m 0,0 km/h (0 Bft) SW 225 1,2 C 16,1 C 0,0 km/h (0 Bft)
20.03.2014 11:25 18,6 C 32 % 1023,5 hPa 0,0 l/m 0,0 km/h (0 Bft) SW 225 1,6 C 16,1 C 0,0 km/h (0 Bft)
20.03.2014 11:30 18,4 C 32 % 1023,5 hPa 0,0 l/m 0,0 km/h (0 Bft) SW 225 1,4 C 16,1 C 0,0 km/h (0 Bft)
20.03.2014 11:35 18,4 C 32 % 1023,5 hPa 0,0 l/m 0,0 km/h (0 Bft) SW 225 1,4 C 16,1 C 0,0 km/h (0 Bft)
20.03.2014 11:40 18,5 C 32 % 1023,5 hPa 0,0 l/m 0,0 km/h (0 Bft) SW 225 1,5 C 16,1 C 0,0 km/h (0 Bft)
20.03.2014 11:45 18,8 C 33 % 1023,4 hPa 0,0 l/m 0,0 km/h (0 Bft) SW 225 2,2 C 16,1 C 0,0 km/h (0 Bft)
20.03.2014 11:50 18,5 C 32 % 1023,4 hPa 0,0 l/m 0,0 km/h (0 Bft) SW 225 1,5 C 16,1 C 0,0 km/h (0 Bft)
20.03.2014 11:55 18,6 C 32 % 1023,4 hPa 0,0 l/m 0,0 km/h (0 Bft) SW 225 1,6 C 16,1 C 0,0 km/h (0 Bft)
20.03.2014 12:00 18,4 C 33 % 1023,4 hPa 0,0 l/m 0,0 km/h (0 Bft) SW 225 1,8 C 16,1 C 0,0 km/h (0 Bft)
20.03.2014 12:05 18,6 C 33 % 1023,2 hPa 0,0 l/m 0,0 km/h (0 Bft) SW 225 2,0 C 16,1 C 0,0 km/h (0 Bft)
20.03.2014 12:10 19,1 C 34 % 1023,2 hPa 0,0 l/m 0,0 km/h (0 Bft) SW 225 2,9 C 16,1 C 0,0 km/h (0 Bft)
20.03.2014 12:15 19,0 C 32 % 1023,2 hPa 0,0 l/m 0,0 km/h (0 Bft) SW 225 1,9 C 16,1 C 0,0 km/h (0 Bft)
20.03.2014 12:20 18,5 C 32 % 1023,2 hPa 0,0 l/m 0,0 km/h (0 Bft) SW 225 1,5 C 16,1 C 0,0 km/h (0 Bft)
20.03.2014 12:25 18,9 C 33 % 1023,2 hPa 0,0 l/m 0,0 km/h (0 Bft) SW 225 2,3 C 16,1 C 0,0 km/h (0 Bft)
20.03.2014 12:30 19,0 C 32 % 1023,2 hPa 0,0 l/m 0,0 km/h (0 Bft) SW 225 1,9 C 16,1 C 0,0 km/h (0 Bft)
20.03.2014 12:35 19,1 C 32 % 1023,2 hPa 0,0 l/m 0,0 km/h (0 Bft) SW 225 2,0 C 16,1 C 0,0 km/h (0 Bft)
20.03.2014 12:40 19,0 C 32 % 1023,2 hPa 0,0 l/m 0,0 km/h (0 Bft) SW 225 1,9 C 16,1 C 0,0 km/h (0 Bft)
20.03.2014 12:45 19,5 C 32 % 1023,1 hPa 0,0 l/m 0,0 km/h (0 Bft) SW 225 2,4 C 16,1 C 0,0 km/h (0 Bft)
20.03.2014 12:50 19,2 C 32 % 1023,1 hPa 0,0 l/m 0,0 km/h (0 Bft) SW 225 2,1 C 16,1 C 0,0 km/h (0 Bft)
20.03.2014 12:55 19,7 C 32 % 1023,1 hPa 0,0 l/m 0,0 km/h (0 Bft) SW 225 2,5 C 16,1 C 0,0 km/h (0 Bft)
20.03.2014 13:00 19,2 C 32 % 1023,1 hPa 0,0 l/m 0,0 km/h (0 Bft) SW 225 2,1 C 16,1 C 0,0 km/h (0 Bft)
20.03.2014 13:05 20,5 C 32 % 1023,1 hPa 0,0 l/m 0,0 km/h (0 Bft) SW 225 3,2 C 16,1 C 0,0 km/h (0 Bft)
20.03.2014 13:10 20,9 C 32 % 1023,1 hPa 0,0 l/m 0,0 km/h (0 Bft) SW 225 3,6 C 16,1 C 0,0 km/h (0 Bft)
20.03.2014 13:15 21,1 C 32 % 1023,1 hPa 0,0 l/m 0,0 km/h (0 Bft) SW 225 3,8 C 16,1 C 0,0 km/h (0 Bft)
20.03.2014 13:20 21,3 C 32 % 1023,1 hPa 0,0 l/m 0,0 km/h (0 Bft) SW 225 3,9 C 16,1 C 0,0 km/h (0 Bft)
20.03.2014 13:25 21,2 C 32 % 1022,9 hPa 0,0 l/m 0,0 km/h (0 Bft) SW 225 3,8 C 16,1 C 0,0 km/h (0 Bft)
20.03.2014 13:30 20,8 C 32 % 1022,9 hPa 0,0 l/m 0,0 km/h (0 Bft) SW 225 3,5 C 16,1 C 0,0 km/h (0 Bft)
20.03.2014 13:35 21,1 C 32 % 1022,9 hPa 0,0 l/m 0,0 km/h (0 Bft) SW 225 3,8 C 16,1 C 0,0 km/h (0 Bft)
20.03.2014 13:40 21,6 C 32 % 1022,9 hPa 0,0 l/m 0,0 km/h (0 Bft) SW 225 4,2 C 16,1 C 0,0 km/h (0 Bft)
20.03.2014 13:45 21,2 C 32 % 1022,9 hPa 0,0 l/m 0,0 km/h (0 Bft) SW 225 3,8 C 16,1 C 0,0 km/h (0 Bft)
20.03.2014 13:50 21,2 C 31 % 1022,9 hPa 0,0 l/m 0,0 km/h (0 Bft) SW 225 3,4 C 16,1 C 0,0 km/h (0 Bft)
20.03.2014 13:55 21,3 C 32 % 1022,9 hPa 0,0 l/m 0,0 km/h (0 Bft) SW 225 3,9 C 16,1 C 0,0 km/h (0 Bft)
20.03.2014 14:00 21,2 C 32 % 1022,9 hPa 0,0 l/m 0,0 km/h (0 Bft) SW 225 3,8 C 16,1 C 0,0 km/h (0 Bft)
20.03.2014 14:05 20,7 C 32 % 1022,8 hPa 0,0 l/m 0,0 km/h (0 Bft) SW 225 3,4 C 16,1 C 0,0 km/h (0 Bft)
20.03.2014 14:10 21,0 C 32 % 1022,8 hPa 0,0 l/m 0,0 km/h (0 Bft) SW 225 3,7 C 16,1 C 0,0 km/h (0 Bft)
20.03.2014 14:15 21,4 C 32 % 1022,8 hPa 0,0 l/m 0,0 km/h (0 Bft) SW 225 4,0 C 16,1 C 0,0 km/h (0 Bft)
20.03.2014 14:20 21,5 C 32 % 1022,8 hPa 0,0 l/m 0,0 km/h (0 Bft) SW 225 4,1 C 16,1 C 0,0 km/h (0 Bft)
20.03.2014 14:25 21,4 C 32 % 1022,6 hPa 0,0 l/m 0,0 km/h (0 Bft) SW 225 4,0 C 16,1 C 0,0 km/h (0 Bft)
20.03.2014 14:30 21,5 C 32 % 1022,6 hPa 0,0 l/m 0,0 km/h (0 Bft) SW 225 4,1 C 16,1 C 0,0 km/h (0 Bft)
20.03.2014 14:35 21,5 C 28 % 1022,6 hPa 0,0 l/m 0,0 km/h (0 Bft) SW 225 2,2 C 16,1 C 0,0 km/h (0 Bft)
20.03.2014 14:40 21,1 C 27 % 1022,6 hPa 0,0 l/m 0,0 km/h (0 Bft) SW 225 1,4 C 16,1 C 0,0 km/h (0 Bft)
20.03.2014 14:45 21,1 C 29 % 1022,6 hPa 0,0 l/m 0,0 km/h (0 Bft) SW 225 2,4 C 16,1 C 0,0 km/h (0 Bft)
20.03.2014 14:50 21,1 C 29 % 1022,6 hPa 0,0 l/m 0,0 km/h (0 Bft) SW 225 2,4 C 16,1 C 0,0 km/h (0 Bft)
20.03.2014 14:55 21,3 C 30 % 1022,6 hPa 0,0 l/m 0,0 km/h (0 Bft) SW 225 3,0 C 16,1 C 0,0 km/h (0 Bft)
20.03.2014 15:00 21,0 C 29 % 1022,6 hPa 0,0 l/m 0,0 km/h (0 Bft) SW 225 2,3 C 16,1 C 0,0 km/h (0 Bft)
20.03.2014 15:03 21,1 C 29 % 1022,1 hPa 0,0 l/m 0,0 km/h (0 Bft) SW 225 2,4 C 16,1 C 0,0 km/h (0 Bft)
20.03.2014 15:05 21,1 C 29 % 1022,1 hPa 0,0 l/m 0,0 km/h (0 Bft) SW 225 2,4 C 16,1 C 0,0 km/h (0 Bft)
20.03.2014 15:10 21,2 C 30 % 1022,1 hPa 0,0 l/m 0,0 km/h (0 Bft) SW 225 2,9 C 16,1 C 0,0 km/h (0 Bft)
20.03.2014 15:15 20,9 C 30 % 1022,1 hPa 0,0 l/m 0,0 km/h (0 Bft) SW 225 2,7 C 16,1 C 0,0 km/h (0 Bft)
20.03.2014 15:20 21,3 C 29 % 1022,1 hPa 0,0 l/m 0,0 km/h (0 Bft) SW 225 2,5 C 16,1 C 0,0 km/h (0 Bft)
20.03.2014 15:25 21,3 C 30 % 1021,5 hPa 0,0 l/m 0,0 km/h (0 Bft) SW 225 3,0 C 16,1 C 0,0 km/h (0 Bft)
20.03.2014 15:30 21,2 C 29 % 1021,5 hPa 0,0 l/m 0,0 km/h (0 Bft) SW 225 2,5 C 16,1 C 0,0 km/h (0 Bft)
20.03.2014 15:35 21,3 C 29 % 1021,5 hPa 0,0 l/m 0,0 km/h (0 Bft) SW 225 2,5 C 16,1 C 0,0 km/h (0 Bft)
20.03.2014 15:40 21,2 C 29 % 1021,5 hPa 0,0 l/m 0,0 km/h (0 Bft) SW 225 2,5 C 16,1 C 0,0 km/h (0 Bft)
20.03.2014 15:45 21,2 C 28 % 1021,1 hPa 0,0 l/m 0,0 km/h (0 Bft) SW 225 2,0 C 16,1 C 0,0 km/h (0 Bft)
20.03.2014 15:50 20,9 C 29 % 1021,1 hPa 0,0 l/m 0,0 km/h (0 Bft) SW 225 2,2 C 16,1 C 0,0 km/h (0 Bft)
20.03.2014 15:55 20,6 C 29 % 1021,1 hPa 0,0 l/m 0,0 km/h (0 Bft) SW 225 1,9 C 16,1 C 0,0 km/h (0 Bft)
20.03.2014 16:00 20,5 C 29 % 1021,1 hPa 0,0 l/m 0,0 km/h (0 Bft) SW 225 1,9 C 16,1 C 0,0 km/h (0 Bft)
20.03.2014 16:05 20,1 C 28 % 1020,4 hPa 0,0 l/m 0,0 km/h (0 Bft) SW 225 1,0 C 16,1 C 0,0 km/h (0 Bft)
20.03.2014 16:10 19,6 C 29 % 1020,4 hPa 0,0 l/m 0,0 km/h (0 Bft) SW 225 1,1 C 16,1 C 0,0 km/h (0 Bft)
20.03.2014 16:15 19,5 C 30 % 1020,4 hPa 0,0 l/m 0,0 km/h (0 Bft) SW 225 1,5 C 16,1 C 0,0 km/h (0 Bft)
20.03.2014 16:20 19,2 C 30 % 1020,4 hPa 0,0 l/m 0,0 km/h (0 Bft) SW 225 1,2 C 16,1 C 0,0 km/h (0 Bft)
20.03.2014 16:25 19,0 C 30 % 1020,2 hPa 0,0 l/m 0,0 km/h (0 Bft) SW 225 1,0 C 16,1 C 0,0 km/h (0 Bft)
20.03.2014 16:30 19,0 C 31 % 1020,2 hPa 0,0 l/m 0,0 km/h (0 Bft) SW 225 1,5 C 16,1 C 0,0 km/h (0 Bft)
20.03.2014 16:35 19,0 C 31 % 1020,2 hPa 0,0 l/m 0,0 km/h (0 Bft) SW 225 1,5 C 16,1 C 0,0 km/h (0 Bft)
20.03.2014 16:40 18,8 C 31 % 1020,2 hPa 0,0 l/m 0,0 km/h (0 Bft) SW 225 1,3 C 16,1 C 0,0 km/h (0 Bft)
20.03.2014 16:45 18,7 C 31 % 1020,0 hPa 0,0 l/m 0,0 km/h (0 Bft) SW 225 1,2 C 16,1 C 0,0 km/h (0 Bft)
20.03.2014 16:50 18,6 C 31 % 1020,0 hPa 0,0 l/m 0,0 km/h (0 Bft) SW 225 1,1 C 16,1 C 0,0 km/h (0 Bft)
20.03.2014 16:55 18,4 C 32 % 1020,0 hPa 0,0 l/m 0,0 km/h (0 Bft) SW 225 1,4 C 16,1 C 0,0 km/h (0 Bft)
20.03.2014 17:00 18,1 C 31 % 1020,0 hPa 0,0 l/m 0,0 km/h (0 Bft) SW 225 0,7 C 16,1 C 0,0 km/h (0 Bft)
20.03.2014 17:05 17,3 C 32 % 1019,8 hPa 0,0 l/m 0,0 km/h (0 Bft) SW 225 0,5 C 16,1 C 0,0 km/h (0 Bft)
20.03.2014 17:10 16,9 C 33 % 1019,8 hPa 0,0 l/m 0,0 km/h (0 Bft) SW 225 0,5 C 16,1 C 0,0 km/h (0 Bft)
20.03.2014 17:15 16,3 C 33 % 1019,8 hPa 0,0 l/m 0,0 km/h (0 Bft) SW 225 0,0 C 16,1 C 0,0 km/h (0 Bft)
20.03.2014 17:20 16,3 C 34 % 1019,8 hPa 0,0 l/m 0,0 km/h (0 Bft) SW 225 0,4 C 16,1 C 0,0 km/h (0 Bft)
20.03.2014 17:25 15,9 C 33 % 1019,4 hPa 0,0 l/m 0,0 km/h (0 Bft) SW 225 -0,3 C 16,1 C 0,0 km/h (0 Bft)
20.03.2014 17:30 15,7 C 34 % 1019,4 hPa 0,0 l/m 0,0 km/h (0 Bft) SW 225 -0,1 C 16,1 C 0,0 km/h (0 Bft)
20.03.2014 17:35 16,1 C 36 % 1019,4 hPa 0,0 l/m 0,0 km/h (0 Bft) SW 225 1,0 C 16,1 C 0,0 km/h (0 Bft)
20.03.2014 17:40 16,0 C 36 % 1019,4 hPa 0,0 l/m 0,0 km/h (0 Bft) SW 225 0,9 C 16,1 C 0,0 km/h (0 Bft)
20.03.2014 17:45 15,6 C 38 % 1019,3 hPa 0,0 l/m 0,0 km/h (0 Bft) SW 225 1,3 C 16,1 C 0,0 km/h (0 Bft)
20.03.2014 17:50 15,6 C 39 % 1019,3 hPa 0,0 l/m 0,0 km/h (0 Bft) SW 225 1,7 C 16,1 C 0,0 km/h (0 Bft)
20.03.2014 17:55 15,2 C 39 % 1019,3 hPa 0,0 l/m 0,0 km/h (0 Bft) SW 225 1,3 C 16,1 C 0,0 km/h (0 Bft)
20.03.2014 18:00 14,4 C 41 % 1019,3 hPa 0,0 l/m 0,0 km/h (0 Bft) SW 225 1,3 C 16,1 C 0,0 km/h (0 Bft)
20.03.2014 18:05 14,5 C 42 % 1019,4 hPa 0,0 l/m 0,0 km/h (0 Bft) SW 225 1,7 C 16,1 C 0,0 km/h (0 Bft)
20.03.2014 18:10 13,6 C 44 % 1019,4 hPa 0,0 l/m 0,0 km/h (0 Bft) SW 225 1,6 C 16,1 C 0,0 km/h (0 Bft)
20.03.2014 18:15 13,0 C 45 % 1019,4 hPa 0,0 l/m 0,0 km/h (0 Bft) SW 225 1,4 C 16,1 C 0,0 km/h (0 Bft)
20.03.2014 18:20 13,6 C 45 % 1019,4 hPa 0,0 l/m 0,0 km/h (0 Bft) SW 225 1,9 C 16,1 C 0,0 km/h (0 Bft)
20.03.2014 18:25 13,5 C 43 % 1019,4 hPa 0,0 l/m 0,0 km/h (0 Bft) SW 225 1,2 C 16,1 C 0,0 km/h (0 Bft)
20.03.2014 18:30 13,3 C 43 % 1019,4 hPa 0,0 l/m 0,0 km/h (0 Bft) SW 225 1,0 C 16,1 C 0,0 km/h (0 Bft)
20.03.2014 18:35 13,3 C 43 % 1019,4 hPa 0,0 l/m 0,0 km/h (0 Bft) SW 225 1,0 C 16,1 C 0,0 km/h (0 Bft)
20.03.2014 18:40 13,1 C 44 % 1019,4 hPa 0,0 l/m 0,0 km/h (0 Bft) SW 225 1,1 C 16,1 C 0,0 km/h (0 Bft)
20.03.2014 18:45 12,8 C 45 % 1019,3 hPa 0,0 l/m 0,0 km/h (0 Bft) SW 225 1,2 C 16,1 C 0,0 km/h (0 Bft)
20.03.2014 18:50 12,4 C 46 % 1019,3 hPa 0,0 l/m 0,0 km/h (0 Bft) SW 225 1,1 C 16,1 C 0,0 km/h (0 Bft)
20.03.2014 18:55 12,0 C 48 % 1019,3 hPa 0,0 l/m 0,0 km/h (0 Bft) SW 225 1,3 C 16,1 C 0,0 km/h (0 Bft)
20.03.2014 19:00 11,7 C 49 % 1019,3 hPa 0,0 l/m 0,0 km/h (0 Bft) SW 225 1,3 C 16,1 C 0,0 km/h (0 Bft)
20.03.2014 19:05 11,2 C 52 % 1019,4 hPa 0,0 l/m 0,0 km/h (0 Bft) SW 225 1,7 C 16,1 C 0,0 km/h (0 Bft)
20.03.2014 19:10 10,8 C 52 % 1019,4 hPa 0,0 l/m 0,0 km/h (0 Bft) SW 225 1,3 C 16,1 C 0,0 km/h (0 Bft)
20.03.2014 19:15 10,8 C 54 % 1019,4 hPa 0,0 l/m 0,0 km/h (0 Bft) SW 225 1,9 C 16,1 C 0,0 km/h (0 Bft)
20.03.2014 19:20 10,4 C 56 % 1019,4 hPa 0,0 l/m 0,0 km/h (0 Bft) SW 225 2,0 C 16,1 C 0,0 km/h (0 Bft)
20.03.2014 19:25 10,7 C 56 % 1018,9 hPa 0,0 l/m 0,0 km/h (0 Bft) SW 225 2,3 C 16,1 C 0,0 km/h (0 Bft)
20.03.2014 19:30 10,5 C 56 % 1018,9 hPa 0,0 l/m 0,0 km/h (0 Bft) SW 225 2,1 C 16,1 C 0,0 km/h (0 Bft)
20.03.2014 19:35 10,4 C 57 % 1018,9 hPa 0,0 l/m 0,0 km/h (0 Bft) SW 225 2,3 C 16,1 C 0,0 km/h (0 Bft)
20.03.2014 19:40 10,3 C 57 % 1018,9 hPa 0,0 l/m 0,0 km/h (0 Bft) SW 225 2,2 C 16,1 C 0,0 km/h (0 Bft)
20.03.2014 19:45 9,9 C 59 % 1018,5 hPa 0,0 l/m 0,0 km/h (0 Bft) SW 225 2,3 C 16,1 C 0,0 km/h (0 Bft)
20.03.2014 19:50 9,8 C 59 % 1018,5 hPa 0,0 l/m 0,0 km/h (0 Bft) SW 225 2,2 C 16,1 C 0,0 km/h (0 Bft)
20.03.2014 19:55 9,6 C 59 % 1018,5 hPa 0,0 l/m 0,0 km/h (0 Bft) SW 225 2,0 C 16,1 C 0,0 km/h (0 Bft)
20.03.2014 20:00 9,4 C 59 % 1018,5 hPa 0,0 l/m 0,0 km/h (0 Bft) SW 225 1,8 C 16,1 C 0,0 km/h (0 Bft)
20.03.2014 20:03 8,3 C 59 % 1018,9 hPa 0,0 l/m 0,0 km/h (0 Bft) SW 225 0,8 C 16,1 C 0,0 km/h (0 Bft)
20.03.2014 20:05 8,3 C 59 % 1018,9 hPa 0,0 l/m 0,0 km/h (0 Bft) SW 225 0,8 C 16,1 C 0,0 km/h (0 Bft)
20.03.2014 20:10 8,2 C 60 % 1018,9 hPa 0,0 l/m 0,0 km/h (0 Bft) SW 225 0,9 C 16,1 C 0,0 km/h (0 Bft)
20.03.2014 20:15 8,4 C 62 % 1018,9 hPa 0,0 l/m 0,0 km/h (0 Bft) SW 225 1,6 C 16,1 C 0,0 km/h (0 Bft)
20.03.2014 20:20 7,8 C 61 % 1018,9 hPa 0,0 l/m 0,0 km/h (0 Bft) SW 225 0,8 C 16,1 C 0,0 km/h (0 Bft)
20.03.2014 20:25 8,3 C 65 % 1018,9 hPa 0,0 l/m 0,0 km/h (0 Bft) SW 225 2,1 C 16,1 C 0,0 km/h (0 Bft)
20.03.2014 20:30 8,3 C 65 % 1018,9 hPa 0,0 l/m 0,0 km/h (0 Bft) SW 225 2,1 C 16,1 C 0,0 km/h (0 Bft)
20.03.2014 20:35 8,3 C 63 % 1018,9 hPa 0,0 l/m 0,0 km/h (0 Bft) SW 225 1,7 C 16,1 C 0,0 km/h (0 Bft)
20.03.2014 20:40 7,8 C 63 % 1018,9 hPa 0,0 l/m 0,0 km/h (0 Bft) SW 225 1,2 C 16,1 C 0,0 km/h (0 Bft)
20.03.2014 20:45 6,8 C 63 % 1018,6 hPa 0,0 l/m 0,0 km/h (0 Bft) SW 225 0,3 C 16,1 C 0,0 km/h (0 Bft)
20.03.2014 20:50 6,8 C 64 % 1018,6 hPa 0,0 l/m 0,0 km/h (0 Bft) SW 225 0,5 C 16,1 C 0,0 km/h (0 Bft)
20.03.2014 20:55 6,3 C 66 % 1018,6 hPa 0,0 l/m 0,0 km/h (0 Bft) SW 225 0,4 C 16,1 C 0,0 km/h (0 Bft)
20.03.2014 21:00 6,3 C 66 % 1018,6 hPa 0,0 l/m 0,0 km/h (0 Bft) SW 225 0,4 C 16,1 C 0,0 km/h (0 Bft)
20.03.2014 21:05 6,4 C 67 % 1018,9 hPa 0,0 l/m 0,0 km/h (0 Bft) SW 225 0,7 C 16,1 C 0,0 km/h (0 Bft)
20.03.2014 21:10 6,7 C 67 % 1018,9 hPa 0,0 l/m 0,0 km/h (0 Bft) SW 225 1,0 C 16,1 C 0,0 km/h (0 Bft)
20.03.2014 21:15 6,3 C 67 % 1018,9 hPa 0,0 l/m 0,0 km/h (0 Bft) SW 225 0,6 C 16,1 C 0,0 km/h (0 Bft)
20.03.2014 21:20 6,1 C 67 % 1018,9 hPa 0,0 l/m 0,0 km/h (0 Bft) SW 225 0,4 C 16,1 C 0,0 km/h (0 Bft)
20.03.2014 21:25 6,2 C 69 % 1018,9 hPa 0,0 l/m 0,0 km/h (0 Bft) SW 225 0,9 C 16,1 C 0,0 km/h (0 Bft)
20.03.2014 21:30 5,7 C 69 % 1018,9 hPa 0,0 l/m 0,0 km/h (0 Bft) SW 225 0,5 C 16,1 C 0,0 km/h (0 Bft)
20.03.2014 21:35 6,0 C 69 % 1018,9 hPa 0,0 l/m 0,0 km/h (0 Bft) SW 225 0,8 C 16,1 C 0,0 km/h (0 Bft)
20.03.2014 21:40 5,9 C 69 % 1018,9 hPa 0,0 l/m 0,0 km/h (0 Bft) SW 225 0,7 C 16,1 C 0,0 km/h (0 Bft)
20.03.2014 21:45 5,2 C 69 % 1018,8 hPa 0,0 l/m 0,0 km/h (0 Bft) SW 225 -0,0 C 16,1 C 0,0 km/h (0 Bft)
20.03.2014 21:50 5,2 C 71 % 1018,8 hPa 0,0 l/m 0,0 km/h (0 Bft) SW 225 0,4 C 16,1 C 0,0 km/h (0 Bft)
20.03.2014 21:55 5,3 C 71 % 1018,8 hPa 0,0 l/m 0,0 km/h (0 Bft) SW 225 0,5 C 16,1 C 0,0 km/h (0 Bft)
20.03.2014 22:00 5,2 C 71 % 1018,8 hPa 0,0 l/m 0,0 km/h (0 Bft) SW 225 0,4 C 16,1 C 0,0 km/h (0 Bft)
20.03.2014 22:05 4,4 C 70 % 1018,6 hPa 0,0 l/m 0,0 km/h (0 Bft) SW 225 -0,6 C 16,1 C 0,0 km/h (0 Bft)
20.03.2014 22:10 4,1 C 70 % 1018,6 hPa 0,0 l/m 0,0 km/h (0 Bft) SW 225 -0,9 C 16,1 C 0,0 km/h (0 Bft)
20.03.2014 22:15 4,3 C 74 % 1018,6 hPa 0,0 l/m 0,0 km/h (0 Bft) SW 225 0,1 C 16,1 C 0,0 km/h (0 Bft)
20.03.2014 22:20 4,4 C 73 % 1018,6 hPa 0,0 l/m 0,0 km/h (0 Bft) SW 225 -0,0 C 16,1 C 0,0 km/h (0 Bft)
20.03.2014 22:25 6,1 C 70 % 1018,5 hPa 0,0 l/m 0,0 km/h (0 Bft) SW 225 1,0 C 16,1 C 0,0 km/h (0 Bft)
20.03.2014 22:30 6,6 C 67 % 1018,5 hPa 0,0 l/m 0,0 km/h (0 Bft) SW 225 0,9 C 16,1 C 0,0 km/h (0 Bft)
20.03.2014 22:35 7,1 C 62 % 1018,5 hPa 0,0 l/m 0,0 km/h (0 Bft) SW 225 0,3 C 16,1 C 0,0 km/h (0 Bft)
20.03.2014 22:40 7,1 C 59 % 1018,5 hPa 0,0 l/m 0,0 km/h (0 Bft) SW 225 -0,4 C 16,1 C 0,0 km/h (0 Bft)
20.03.2014 22:45 5,9 C 60 % 1018,3 hPa 0,0 l/m 0,0 km/h (0 Bft) SW 225 -1,3 C 16,1 C 0,0 km/h (0 Bft)
20.03.2014 22:50 4,9 C 62 % 1018,3 hPa 0,0 l/m 0,0 km/h (0 Bft) SW 225 -1,8 C 16,1 C 0,0 km/h (0 Bft)
20.03.2014 22:55 4,1 C 65 % 1018,3 hPa 0,0 l/m 0,0 km/h (0 Bft) SW 225 -1,9 C 16,1 C 0,0 km/h (0 Bft)
20.03.2014 23:00 4,1 C 66 % 1018,3 hPa 0,0 l/m 0,0 km/h (0 Bft) SW 225 -1,7 C 16,1 C 0,0 km/h (0 Bft)
20.03.2014 23:05 4,1 C 68 % 1018,1 hPa 0,0 l/m 0,0 km/h (0 Bft) SW 225 -1,3 C 16,1 C 0,0 km/h (0 Bft)
20.03.2014 23:10 3,8 C 69 % 1018,1 hPa 0,0 l/m 0,0 km/h (0 Bft) SW 225 -1,4 C 16,1 C 0,0 km/h (0 Bft)
20.03.2014 23:15 3,5 C 70 % 1018,1 hPa 0,0 l/m 0,0 km/h (0 Bft) SW 225 -1,4 C 16,1 C 0,0 km/h (0 Bft)
20.03.2014 23:20 3,8 C 73 % 1018,1 hPa 0,0 l/m 0,0 km/h (0 Bft) SW 225 -0,6 C 16,1 C 0,0 km/h (0 Bft)
20.03.2014 23:25 3,3 C 72 % 1018,0 hPa 0,0 l/m 0,0 km/h (0 Bft) SW 225 -1,3 C 16,1 C 0,0 km/h (0 Bft)
20.03.2014 23:30 3,4 C 73 % 1018,0 hPa 0,0 l/m 0,0 km/h (0 Bft) SW 225 -1,0 C 16,1 C 0,0 km/h (0 Bft)
20.03.2014 23:35 4,1 C 71 % 1018,0 hPa 0,0 l/m 0,0 km/h (0 Bft) SW 225 -0,7 C 16,1 C 0,0 km/h (0 Bft)
20.03.2014 23:40 4,9 C 69 % 1018,0 hPa 0,0 l/m 0,0 km/h (0 Bft) SW 225 -0,3 C 16,1 C 0,0 km/h (0 Bft)
20.03.2014 23:45 7,4 C 59 % 1017,8 hPa 0,0 l/m 0,0 km/h (0 Bft) SW 225 -0,1 C 16,1 C 0,0 km/h (0 Bft)
20.03.2014 23:50 8,2 C 55 % 1017,8 hPa 0,0 l/m 0,0 km/h (0 Bft) SW 225 -0,3 C 16,1 C 0,0 km/h (0 Bft)
20.03.2014 23:55 7,6 C 52 % 1017,8 hPa 0,0 l/m 0,0 km/h (0 Bft) SW 225 -1,6 C 16,1 C 0,0 km/h (0 Bft)
_ Min-Zeit 06:25 14:40 23:55 - 23:55 - - 06:25 23:55 23:55
Minimum _ -2,7 C 27 % 1017,8 hPa - 0,0 km/h (0 Bft) - - -4,3 C 16,1 C 0,0 km/h (0 Bft)
_ Max-Zeit 13:40 08:05 00:00 23:55 23:55 - - 08:40 23:55 23:55
Maximum _ 21,6 C 91 % 1026,4 hPa 0,0 l/m 0,0 km/h
SW (0 Bft)
- - 5,6 C 16,1 C 0,0 km/h
SW (0 Bft)
Durchschnitt _ 8,8 C 60 % 1021,9 hPa #0,0 l/m 0,0 km/h (0 Bft) - - - -0,0 C 16,1 C 0,0 km/h (0 Bft)